map of SYD home
SYD - Airport
Location
City:  Sydney, New South Wales, Australia
Name:Kingsford Smith
ICAO:YSSY
IATA:SYD

Details
Type:Airport (Aerodrome, Airfield)
Use:Public/Civil, International (customs port of entry)
Latitude:3356'46"S (-33.946110)
Longitude:15110'38"E (151.177222)
Datum:WGS 1984
Elevation:21 ft (6 m)
Variation:12.60E (WMM2015 magnetic declination)
0.01 annual change
Runways:3
Longest:12999 × 148 ft (3962 × 45 m), paved

Time
Time Zone:UTC+10 (DST+11)
Local Time:

Weather
METAR:YSSY 191300Z 34007KT CAVOK 21/15 Q1019 NOSIG
TAF:YSSY 191114Z 1912/2018 29008KT CAVOK
FM191800 18010KT 9999 SCT015
FM200000 16015KT 9999 SCT025
FM201000 22010KT 9999 BKN025

Related Locations
Nearby:
Farthest:SMA: 12143 mi / 19543 km
Santa Maria, 20, PT

Find:

   beyond  
but within

Other Information
Maps:
NOTAMs:
Links:
Sources:

  
flag of Australia
flag of New South Wales
flag of Sydney
  

Sectional Chart

Flight Planning
at skyvector.com

Satellite Image

Google Maps Satellite view

 

Copyright © 2004-2018 Karl L. Swartz. All rights reserved.
The Great Circle Mapper name and logo are trademarks of the Great Circle Mapper.
All other trademarks mentioned herein belong to their respective owners.
Please see credits for attibutions and further copyright information.

  Follow gcmap on Facebook Follow gcmap on Twitter Follow gcmap on Google+ GCmap on LinkedIn

hCard Microformat

Geo Microformat